GFSSGP_con_sbcape_159.txt.gz
CAPE
8 29 137 84 395 241 161 100 16 17 46 95 27 57 11 304 0 0 101 20 26 59 374 612 634 564 489 689 523 989 1214 1109 1152 1170 1035 1034 1073 1037 1256 1572 1685 1343 1347 1604 1528 1670 1603 1439 1730
0 0 48 80 163 158 151 42 63 53 7 105 100 136 203 271 136 54 27 110 18 72 370 331 551 196 109 220 671 848 1147 1022 752 614 520 568 817 433 685 1553 1639 1673 1562 1674 1476 1594 1592 1685 1877
2 24 9 107 111 214 166 84 49 55 10 9 98 157 133 108 65 184 27 174 353 460 300 383 631 456 416 290 531 724 788 933 1388 1219 629 371 424 568 1413 1191 1446 1616 1737 1738 1559 1553 1685 1545 1489
234 11 4 136 151 116 187 253 166 4 0 0 2 16 187 69 141 45 83 151 195 173 179 292 553 532 387 864 579 710 624 1305 1497 1672 1378 1415 1418 1376 1381 1036 1776 1727 1684 1729 1335 1564 1466 1535 1846
40 35 61 113 46 87 161 155 133 132 60 31 0 17 66 360 324 38 83 83 87 235 204 483 969 1123 942 1051 686 30 117 1143 1199 971 1017 1081 1325 1429 1451 1558 1856 1647 1520 1453 1519 1361 1566 1719 1751
65 105 64 72 76 86 168 50 172 85 43 0 0 83 157 330 120 97 61 73 60 226 692 962 238 826 1079 760 745 845 769 883 1111 988 600 601 928 1474 1565 1602 1489 1527 1523 1394 1508 1393 1581 1679 1576
58 85 24 27 65 94 76 1 100 80 6 0 88 62 219 165 136 76 110 147 445 814 1177 1143 1333 783 326 683 444 713 1024 1185 1236 876 887 735 1323 1438 1782 1830 1719 1882 1663 1289 1388 1575 1542 1385 1365
83 109 13 1 32 76 27 23 15 106 186 39 47 49 245 182 436 227 173 577 801 974 1183 1576 1664 1522 1211 1326 791 759 1198 1187 1526 1488 1193 1145 1338 1522 1621 2103 1820 1106 1068 1158 1135 1157 1048 1251 1574
108 69 20 8 16 32 55 32 6 127 251 171 177 84 154 315 572 329 508 771 1013 1117 1364 1295 1409 1849 1897 1722 1678 1540 1758 1990 1900 1847 1626 1612 1327 1457 1148 1744 1356 1165 1252 1255 1154 1131 1205 1203 982
113 174 79 52 13 48 116 104 140 147 209 151 109 173 311 606 608 358 261 434 766 1030 1362 1616 1365 1658 1951 1544 1688 1784 1671 1598 1629 1450 1592 1303 1895 1814 1606 1641 1901 2028 1969 1931 1963 1558 1543 779 442
120 263 155 25 43 60 121 155 153 68 140 213 124 232 385 604 713 604 184 215 369 860 1243 1432 1402 1697 1942 1693 1416 1167 1201 1228 1082 1291 1404 1354 1226 900 782 644 816 882 732 363 587 769 659 740 745
170 90 54 23 81 94 70 125 124 52 160 236 130 238 382 529 527 485 137 341 652 803 1006 1366 1182 1381 1543 1216 889 793 666 706 970 1042 1011 1291 797 225 502 476 498 750 809 1136 1314 991 1490 1877 2082
89 83 32 65 81 93 96 160 257 121 225 196 122 256 331 351 383 296 192 348 591 698 998 1169 983 933 1335 1237 1134 1125 859 785 774 905 734 725 755 498 407 816 670 1051 1436 1578 1657 1737 1808 1991 1700
244 148 69 106 110 47 19 91 274 315 260 156 129 233 323 392 324 325 380 359 425 611 903 877 727 617 1001 924 1168 1084 857 537 783 771 725 636 478 356 542 630 981 1555 1646 1831 1798 1810 1172 1178 1060
389 378 350 246 37 33 62 121 216 259 235 256 165 172 285 405 475 504 531 487 333 605 841 801 766 434 822 990 876 685 284 382 446 508 749 706 170 310 385 812 1642 1679 1740 2127 1683 1078 1193 1175 1037
115 255 304 376 339 146 195 155 226 194 235 369 344 263 290 412 380 484 574 679 594 560 753 865 565 306 724 930 601 549 373 209 377 399 296 689 427 443 738 1331 1523 1629 2120 2103 1430 952 1191 1218 1152
82 21 13 189 153 210 30 47 261 206 312 366 320 292 282 332 387 443 488 635 629 588 675 830 620 523 332 720 752 501 550 340 401 655 663 642 351 537 1280 1009 1245 1746 1911 2129 1308 1149 1401 1542 1556
11 33 59 130 121 297 116 32 198 252 180 417 405 256 211 225 319 413 479 616 576 210 513 638 506 418 258 412 801 470 461 382 410 590 300 366 290 410 582 528 1341 1601 2210 2178 1806 1587 1492 1521 1536
15 19 4 207 463 229 200 83 151 209 225 303 313 341 237 262 180 293 413 597 566 143 105 462 112 304 182 374 791 663 545 533 595 1041 886 287 569 665 634 595 1208 1857 2736 2453 2250 1781 1606 983 856
0 0 62 327 630 185 167 127 93 54 324 299 103 137 259 335 405 413 448 628 584 456 245 190 169 220 753 608 951 722 845 817 941 1032 1155 797 726 619 178 543 942 1573 2213 2237 1728 1613 1009 854 880
0 0 133 126 725 415 224 146 108 64 69 185 132 129 146 220 310 385 432 599 662 600 430 355 187 492 1094 1031 963 902 1157 1149 1223 965 1091 1342 1403 779 813 258 360 928 1519 2019 1997 1924 1024 491 944
0 28 184 513 249 149 159 42 133 118 94 65 189 148 190 210 263 324 317 478 685 700 501 613 338 703 1130 1231 1179 1275 877 1201 1020 1129 1187 1677 1745 1270 728 62 301 601 1112 1448 1687 1455 2210 1800 1369
3 179 339 217 241 143 171 172 67 136 105 79 110 205 271 197 269 258 234 346 494 663 572 717 585 649 1142 1220 1279 1526 1189 1051 1231 1076 1430 2074 1900 1498 713 96 263 350 854 1027 726 1667 1478 1467 1317
101 163 104 73 234 11 0 185 27 233 223 105 56 110 208 163 227 237 293 274 303 500 619 695 902 949 1129 1275 1378 1407 1419 1366 1375 1277 1178 1596 1668 1512 1208 342 74 169 353 682 1084 2246 2646 2957 2855
47 77 145 116 82 0 18 180 53 73 79 173 125 51 82 171 200 279 234 237 273 319 464 547 969 1181 1140 1165 1266 1378 1510 1664 1769 1607 1593 1719 1599 1545 1711 1203 1027 85 788 398 668 2487 2766 2513 2575
60 18 3 0 1 0 0 27 31 39 182 107 53 74 96 48 161 392 293 279 322 378 530 650 880 1194 1059 1043 1245 1474 1447 1173 1265 1596 1378 1322 1538 1520 2030 1534 1506 825 1211 561 263 2036 1843 2201 2474
0 21 0 0 0 16 0 30 23 68 260 255 104 53 112 66 32 150 364 297 342 451 611 758 980 1258 1160 1033 1180 1304 1418 1241 1166 1462 1581 1504 1733 1635 1827 1709 1663 1724 1661 1738 934 1817 2226 2265 2398
0 0 0 9 13 0 0 42 18 121 176 151 220 95 95 80 53 29 183 386 375 433 583 745 868 1097 1083 1042 1124 1146 1352 1449 1405 1429 1366 1574 1643 1799 1789 1907 1905 1987 1959 2098 2033 1973 2207 2588 1983
0 0 0 5 1 0 0 0 15 140 157 136 117 93 142 97 59 89 114 305 520 445 503 637 810 899 1061 1038 1159 1211 1265 1329 1480 1410 1405 1443 1593 1650 1810 1891 1801 2036 2090 2210 2537 2503 2436 2343 2229
0 0 7 1 53 0 2 0 0 104 97 212 380 324 296 85 110 82 97 170 357 559 719 643 757 834 927 1024 1085 1192 1273 1270 1207 1327 1324 1375 1468 1586 1689 1831 2246 2235 2168 2213 2368 2081 1575 2053 2094

GFSSGP_con_sbcape_162.txt.gz
CAPE
252 719 625 516 1385 587 272 162 143 123 152 297 176 332 244 189 10 287 14 125 117 266 498 524 609 527 447 586 338 1044 1201 1263 1116 1218 1512 1274 1244 1537 1424 1426 931 847 1242 1847 1809 1720 1659 1812 2012
121 57 416 493 711 242 324 205 177 176 225 279 313 269 408 32 16 51 130 157 240 317 535 623 446 407 405 426 376 1056 837 1048 1165 1033 1094 1010 681 851 641 434 1467 1579 1735 1794 1795 1703 1946 1930 1934
61 135 318 457 345 278 435 360 326 158 145 253 358 359 305 5 30 98 221 348 453 399 422 349 512 374 266 496 458 639 500 584 791 628 667 539 619 688 706 1355 1742 1849 1946 1779 1761 1686 1601 1593 1660
489 216 131 528 270 516 505 438 193 126 116 207 206 258 53 80 30 100 291 225 339 282 244 547 787 643 527 507 502 286 287 886 1251 797 417 644 1162 1453 1268 1823 1608 1920 1728 1613 1723 1603 1527 1684 1779
561 172 303 257 454 529 494 272 342 116 112 175 66 39 73 174 21 107 153 152 198 217 358 391 554 609 543 319 205 602 743 833 1277 1429 1505 1248 1396 1318 1392 1836 1619 1800 1446 1613 1522 1582 1650 1825 1939
231 229 144 126 154 543 472 262 238 146 125 43 0 28 369 133 32 58 48 162 313 121 271 195 634 732 421 169 16 269 676 609 729 1010 1490 1486 1418 1603 1901 1646 1590 1519 1551 1588 1516 1623 1684 1605 2156
245 128 89 119 195 619 402 209 459 77 28 40 18 83 174 101 41 13 10 41 275 385 420 359 731 716 774 631 479 357 372 381 396 268 31 24 1335 1532 1591 1610 1637 1496 1381 1498 1574 1627 1439 1413 1606
78 37 2 63 328 276 141 66 205 192 56 0 35 70 159 100 44 54 88 187 307 376 653 450 184 1145 704 798 770 662 567 321 273 307 794 1063 1214 1435 1607 1962 1640 1489 1460 1492 1388 1258 1232 1453 1922
304 181 71 54 139 263 33 58 26 322 31 313 335 8 90 105 86 84 219 343 389 453 377 494 504 1114 1340 1065 715 602 387 849 1110 863 919 932 1231 810 1450 1614 1386 1273 1208 1222 1231 1087 1275 1044 1624
259 310 154 105 10 29 87 50 134 275 115 224 228 147 101 216 163 162 195 259 320 488 659 598 524 830 1068 947 1321 1274 1248 1444 1380 1038 818 564 821 1927 992 1641 1608 1396 1367 1353 1229 1099 1297 943 742
339 731 477 35 19 92 123 120 272 173 124 118 164 192 178 133 124 97 110 151 348 509 778 612 899 1191 890 588 808 1068 860 832 1282 1376 838 663 503 409 273 475 605 422 1178 826 835 954 1004 908 1106
509 424 269 23 15 46 139 231 252 202 203 253 33 117 237 208 144 88 95 128 391 557 677 546 744 1074 489 256 287 541 568 521 730 1224 1257 1278 392 701 357 244 499 620 712 1032 1051 904 1468 1756 1878
416 368 244 91 20 23 77 246 259 231 323 352 111 218 181 156 179 94 68 163 341 547 681 613 696 812 1315 979 557 423 404 596 855 849 1297 1108 784 1026 1009 1523 1299 1434 1622 1553 1626 1694 1863 1893 1640
463 345 319 178 57 35 77 85 288 568 443 416 252 224 218 114 167 136 105 169 263 370 536 570 298 1160 1623 1601 1526 1228 844 1058 728 724 1185 1391 883 1062 1198 1581 1629 1729 1813 1655 1696 2062 1701 1813 1565
561 536 459 372 236 19 55 36 129 635 614 426 235 210 257 280 243 247 182 167 249 418 600 514 384 988 1459 1358 1320 770 894 675 613 962 1615 1072 558 1146 1093 1718 1650 1560 1977 2341 2023 1632 1652 1346 1373
568 383 334 543 610 221 110 49 88 400 521 487 278 237 283 372 435 587 601 539 331 447 856 570 100 610 1045 1308 1071 761 624 506 661 904 1067 1115 898 1320 1368 1738 1856 2317 1974 1519 1267 1166 1148 1223 1331
230 52 85 521 636 571 516 174 491 225 393 478 521 349 311 362 463 659 696 717 725 732 1013 841 482 515 984 1559 1227 1123 1215 556 822 1040 995 1145 815 1219 2016 1776 2159 2792 1718 1476 1167 1192 1469 1503 1546
55 33 8 300 515 586 525 370 621 592 433 423 584 603 496 456 442 616 677 735 770 808 981 1209 1117 1198 1282 1174 1686 1099 848 732 554 791 708 1084 823 1064 1745 1624 2399 2717 1902 1625 1690 2409 1972 1983 2038
13 1 13 398 382 600 481 313 264 751 199 374 702 553 477 457 429 577 721 831 911 861 715 1188 1297 1432 1336 716 1111 922 665 736 553 815 847 1068 1008 1312 1759 1417 2144 2767 2947 3169 3206 2643 2653 1900 1875
6 0 258 768 651 508 367 285 289 535 637 351 444 698 495 408 496 621 698 863 1026 1106 878 952 1269 1221 1342 848 1281 991 889 898 888 1074 1131 812 1127 1563 1072 1696 2145 3073 2752 3172 2805 2775 1871 1047 1365
10 35 138 195 793 672 525 606 500 481 650 697 574 338 423 509 612 747 799 818 1014 1153 1230 1072 1236 1039 1379 1193 1632 1593 1386 1777 1583 1264 1156 1120 1613 1329 1562 1330 1590 2466 3019 2649 2812 2795 2316 1345 1747
32 5 77 349 514 154 257 85 487 589 580 599 700 557 370 505 571 595 724 844 952 1067 1238 1201 904 975 1632 1996 1601 1496 1047 1200 854 743 755 1643 2099 1811 1873 666 987 1943 2357 2890 2858 2289 3174 2864 1590
4 54 373 282 139 68 132 139 248 490 566 522 496 400 341 303 459 427 589 618 768 1025 1086 1210 1152 1353 1757 2094 1888 1930 1221 965 943 675 1874 1729 2666 2254 1559 923 1006 1491 1836 2516 2158 2564 2579 2323 2304
42 313 445 314 80 114 22 1 121 219 271 367 428 397 539 405 351 413 504 586 666 880 1045 1044 1561 1368 1748 2149 2028 1905 1366 1285 1189 970 1169 1179 1795 2069 2193 1217 951 1033 1312 2051 1838 2585 2833 3065 2245
211 122 137 146 139 82 7 14 94 75 193 344 408 326 242 524 543 445 618 647 733 745 931 977 1609 1882 1653 1865 1824 1878 1923 1496 1063 1137 1021 1014 1139 1231 2066 2315 2025 642 1445 1442 2036 2870 2903 2809 2682
3 63 88 75 55 33 0 28 158 101 247 387 481 571 553 267 472 470 593 748 815 752 843 1029 1348 2017 1916 1876 1961 1876 2082 2237 1095 1109 962 923 733 673 1404 2453 2289 736 1410 1519 1344 2263 2252 2102 2291
10 2 15 4 0 0 34 8 52 81 255 294 462 542 525 624 319 420 553 682 776 827 861 1019 1230 1811 1947 1726 2100 1952 2207 2021 1191 1438 1820 1436 1345 1212 1911 2059 2220 2140 2018 2342 1736 1121 2395 2233 2271
0 7 3 2 25 23 30 0 23 9 96 128 208 350 623 508 455 217 345 738 780 743 830 1031 1279 1686 1867 1583 1781 1787 1822 1911 1811 1961 1861 1589 1548 1881 1618 2273 2105 2147 2314 2566 2566 1452 1995 2375 1585
0 1 0 9 14 37 34 30 0 27 126 258 242 343 495 510 439 448 284 248 648 788 839 946 1310 1454 1729 1610 1588 1749 1647 1667 1917 1765 1935 1920 2093 2251 2424 2267 2160 1964 2219 2439 2902 2240 1929 2285 2065
0 9 28 37 63 12 8 33 0 182 192 352 612 710 842 725 651 666 523 493 464 832 1022 1036 1161 1289 1384 1417 1585 1778 1768 1689 1568 1661 1562 1663 1956 2203 2353 1822 1576 1846 1892 2181 2451 1903 1465 1906 1833

GFSSGP_con_sbcape_165.txt.gz
CAPE
420 1013 1203 1208 1498 869 218 72 94 86 208 239 264 147 57 109 420 480 283 92 269 544 574 748 700 534 643 449 867 952 1312 1248 1202 1121 1155 1383 1521 1324 1255 1067 1166 1009 1381 1860 1781 1829 1891 1983 2013
567 425 516 1001 992 296 284 107 128 153 216 296 321 331 50 125 210 291 322 127 235 418 519 581 728 525 677 453 711 849 1070 982 1028 918 1155 1316 1166 828 373 954 850 1475 1831 1716 1613 1832 1994 1832 1616
437 340 1036 628 621 69 284 165 179 130 144 283 352 357 142 72 187 286 238 234 419 497 520 668 466 412 394 535 773 779 694 653 597 652 439 722 891 699 248 1104 1538 1770 1692 1669 1542 1621 1499 1658 1926
723 750 619 476 474 361 265 260 116 82 163 264 280 222 179 114 313 439 345 288 363 368 327 510 544 601 631 696 613 525 378 599 745 688 267 750 518 647 1324 1506 1604 1797 1577 1334 1395 1368 1395 1669 1751
628 874 498 659 369 442 446 337 129 106 155 204 196 228 96 90 183 404 202 116 332 292 379 590 763 698 522 382 400 318 674 854 1080 763 442 759 1261 1142 1597 1561 1638 1312 1684 1624 1469 1600 1737 1712 1929
585 556 610 199 326 410 507 366 81 110 109 129 114 276 82 69 96 265 177 225 508 278 349 663 578 109 123 135 378 474 770 573 687 1319 1352 1069 1081 1522 1461 1695 1409 1528 1572 1685 1695 1708 1618 2096 2291
646 366 198 93 483 481 483 412 114 103 113 122 96 180 73 72 48 70 420 224 171 560 828 936 797 582 34 52 441 539 468 433 329 590 978 1514 1479 1255 1515 1757 1605 1578 1581 1643 1617 1523 1327 1574 2083
570 73 95 87 107 491 299 346 307 105 57 53 102 114 96 56 26 31 128 304 275 353 45 740 305 356 347 296 584 404 301 231 184 76 279 1286 1210 1423 1462 1760 1818 1508 1622 1613 1551 1227 1229 1772 1997
409 474 207 155 255 197 222 171 155 126 127 215 118 81 58 3 39 82 239 196 290 418 143 582 577 352 327 233 396 342 283 193 199 282 880 1302 1330 1238 1403 1484 1396 1406 1521 1354 1269 1146 1243 1499 2023
414 707 201 185 97 264 77 82 195 142 169 166 132 17 0 3 66 98 164 197 319 490 470 352 941 1333 1087 1070 574 456 578 674 356 705 641 1296 1614 2089 1144 1318 1340 1276 1331 1316 1309 1244 1537 1379 1470
374 739 456 26 67 136 89 130 253 118 111 154 122 0 30 89 130 109 109 181 146 306 327 641 1400 1405 919 993 727 908 1221 927 1110 1761 1686 942 966 447 287 466 680 980 1506 1256 1208 1046 1370 1162 1661
371 582 374 15 115 129 66 53 306 268 121 62 86 1 27 82 106 116 129 214 304 203 359 211 1272 761 270 536 593 858 920 686 670 497 432 561 410 369 251 266 375 539 1087 857 950 964 1589 1816 1775
493 566 331 81 116 124 200 395 247 212 169 44 79 118 82 103 96 124 147 243 411 335 307 376 443 488 460 345 566 690 705 859 311 488 546 358 391 743 578 866 920 887 718 1312 1381 1258 1927 1789 1499
516 550 336 91 16 37 75 100 350 318 318 102 94 122 113 142 140 105 169 244 358 407 333 267 285 1501 1733 1559 790 501 705 524 349 361 768 1214 669 1959 1228 1750 1044 1096 1290 1148 1640 2245 1629 1306 1315
587 472 465 360 56 129 44 60 272 394 345 164 134 146 135 180 149 140 193 293 333 397 366 200 428 1083 1440 1593 1018 794 412 620 303 776 1453 1162 1363 1696 1716 1280 1260 957 1700 1959 1837 1807 1620 1272 1234
436 472 520 549 641 120 41 35 25 127 502 135 138 161 183 173 173 234 215 300 351 760 503 246 213 668 939 1837 1688 843 1028 389 385 638 1260 1349 1560 1598 2317 1856 1242 1625 1405 1015 1021 985 905 1270 1363
538 89 359 627 631 491 208 55 18 81 432 324 166 137 130 264 323 493 452 382 329 786 693 313 206 413 886 1276 1111 1294 1002 471 538 552 817 1381 1144 1780 1890 1299 2083 2607 1019 1007 1040 923 1280 1587 1341
11 51 52 526 647 650 440 358 398 159 220 335 350 176 197 244 402 438 424 441 457 766 990 755 517 1073 1151 1396 1488 923 790 469 508 722 809 1307 1106 1505 2320 1720 2125 2643 1020 1006 1679 2412 2009 1795 1768
31 24 91 296 309 579 634 499 624 582 376 202 593 357 312 256 289 490 508 442 550 824 969 1062 1117 1799 1621 1220 1298 801 628 666 522 686 1097 1240 1045 1712 2240 1396 2132 2044 2617 3318 2321 2369 2570 1455 1337
17 32 173 344 396 683 426 418 645 892 489 409 488 510 350 340 235 653 615 570 656 903 938 1235 1334 1789 1836 1006 1712 1277 1981 611 619 922 1104 1047 1177 2007 1743 2567 2209 3516 2323 3070 2763 3165 2110 1142 1877
10 63 102 323 367 294 117 190 569 638 841 614 451 634 605 309 376 476 629 842 730 1046 1168 1197 1619 1549 1656 1313 1605 1605 1398 2031 1115 1581 1190 1071 1361 1723 1800 2209 2782 2943 4056 2365 2922 3009 2788 1929 2096
52 15 6 102 99 0 11 54 14 782 799 718 674 555 481 484 154 357 621 638 948 1135 1289 1432 1595 1591 1756 1881 2350 1931 1311 1067 1129 1031 981 1078 1597 1708 1940 1610 2005 2977 2826 3790 2977 2463 3119 2863 1835
31 0 40 134 131 96 216 97 115 422 793 809 712 692 396 275 255 527 395 742 940 1027 1171 1430 1481 1419 1602 2132 2012 1632 1715 987 1200 1302 2495 2876 2298 2102 1985 1445 1725 2199 2369 3442 2861 2897 3041 2439 2296
1 1 32 52 69 60 68 7 202 164 265 580 689 688 515 230 374 535 412 485 703 1037 1085 1302 1675 1659 2137 2400 2136 2017 1712 1725 2376 1674 1396 1205 1781 2047 2360 1662 1724 1852 1915 2608 2539 2706 2923 3012 2568
0 84 164 109 75 154 67 0 150 39 82 419 466 398 743 545 396 490 556 653 935 1153 1199 1466 1963 1919 2007 2157 1989 1858 2011 1822 1626 1437 1000 1379 1859 1173 2728 2329 2344 1417 1809 2059 2536 3091 3062 2564 2649
19 54 28 107 174 102 45 47 157 50 128 405 535 805 474 553 555 612 480 872 1113 800 1077 1706 2119 2258 1946 1922 2185 2771 2146 1716 1446 1475 967 742 1302 1030 3761 2571 2262 1398 1375 1887 2227 2510 2362 2876 2234
50 2 10 34 46 5 48 26 23 1 110 196 659 795 816 403 442 696 634 696 873 954 961 1197 1870 2423 2267 1932 2673 2521 3035 1996 1858 2904 1833 1599 2234 2066 1901 1829 2119 1943 1261 2068 2017 1228 1919 2113 2119
0 7 37 7 61 179 24 8 227 98 85 116 204 531 910 931 686 588 618 773 948 1134 996 1080 1372 2132 2304 2015 2144 2154 2116 2133 1980 1826 2660 2206 979 1298 2388 1718 1764 2055 2025 2246 2542 2437 2335 2105 1792
0 0 0 13 67 50 139 12 2 47 22 162 233 427 675 725 760 674 559 587 1005 1084 1176 1131 1305 1672 2165 2058 2240 2303 2078 1912 2013 1469 2020 2029 2049 1999 1897 2288 2270 2018 1833 2001 2526 2793 2518 2438 2119
10 42 32 36 40 121 31 37 6 26 35 221 444 680 924 886 942 916 782 517 709 1159 1283 1661 1326 1410 1800 2085 2203 2130 2074 2052 1922 1852 1496 1876 2489 2635 2627 2249 2637 2258 1880 2385 2467 2214 1621 1941 1905

GFSSGP_con_sbcape_168.txt.gz
CAPE
273 505 1124 1305 949 216 186 42 120 129 78 29 31 0 23 151 495 341 125 701 833 712 712 753 1128 822 609 884 761 857 1291 1224 1036 1153 1230 1340 1223 1366 1133 1141 937 834 1252 1663 1706 1706 1836 1864 1917
0 742 489 620 326 70 97 72 138 76 62 182 72 9 0 270 256 171 383 565 690 637 470 606 1318 679 766 533 971 1171 1258 968 629 718 1137 1266 949 1099 1179 1011 830 380 1678 1633 1662 1777 1722 1373 1284
23 535 452 695 27 13 145 19 55 40 98 82 89 21 14 367 335 185 329 414 603 834 771 796 855 763 606 473 725 684 752 558 310 281 796 951 757 224 623 1233 1427 1607 1698 1655 1796 1509 1366 1639 1732
467 659 432 733 1 7 125 29 60 77 56 110 89 57 104 296 328 232 315 461 489 460 422 681 702 629 696 707 805 637 595 646 835 164 293 962 760 755 1431 1484 1566 1628 1330 1230 1168 1071 1269 1395 1362
389 520 652 532 451 264 144 94 85 43 61 63 19 4 34 152 362 247 158 321 267 288 328 748 944 847 864 779 588 537 637 857 753 235 191 314 869 1218 866 1435 1300 1271 1171 1098 1305 1418 1437 1275 1592
121 769 322 86 141 0 353 96 36 21 51 46 8 14 24 258 179 167 256 97 433 297 267 246 700 659 628 485 269 181 796 757 911 187 354 867 1016 301 389 1152 1396 1557 1474 1423 1482 1410 1627 1689 1874
372 382 49 94 203 227 399 185 44 29 52 77 22 11 53 131 280 350 370 265 513 485 706 882 206 272 461 364 369 269 204 792 652 339 597 594 361 116 501 1305 1652 1698 1585 1471 1431 1160 1210 1746 1926
583 64 35 48 154 220 247 290 50 14 15 85 49 27 72 77 335 260 222 439 534 582 346 501 536 4 100 596 263 464 585 113 17 11 0 881 176 419 1097 1474 1971 1586 1518 1387 1463 1210 1197 1586 1935
127 48 89 109 0 66 362 63 130 0 16 59 89 59 13 46 183 183 286 576 117 152 295 103 205 203 208 174 282 192 352 189 112 114 364 470 1084 1291 1295 1507 1691 1560 1446 1380 1517 1275 1072 1461 2538
316 133 251 115 11 150 337 4 34 64 13 114 42 31 8 26 134 188 282 521 194 259 550 269 268 298 268 183 235 190 195 201 165 338 442 796 1019 909 1425 1587 1348 1335 1350 1439 1842 2069 1255 185 830
341 734 249 95 100 145 174 426 177 60 69 75 42 0 3 31 62 128 200 248 331 531 951 582 833 857 417 246 145 343 140 47 102 85 286 553 1484 1282 1296 1377 1035 1335 1529 1268 1620 1413 1114 759 847
613 555 292 33 112 90 87 26 170 35 66 34 18 3 15 62 57 71 119 87 158 378 595 1195 529 361 815 288 821 1223 1272 723 543 429 292 378 999 1716 609 734 995 1427 1340 1844 1780 1457 2418 1752 1902
229 421 133 224 47 10 85 225 131 101 44 49 16 28 41 65 45 32 129 164 213 204 491 1050 831 922 745 138 345 1410 1024 918 970 1337 755 1259 1467 1958 2098 1494 1597 1207 1777 1790 415 2415 2542 2620 1588
198 422 106 62 90 4 75 94 254 78 134 73 54 39 47 27 75 76 172 296 275 258 412 300 418 1442 1687 460 820 1379 1052 628 1066 1276 2302 1634 1897 1694 1672 3008 2244 1537 1083 1832 2859 2789 3154 2505 1874
575 498 237 1 11 18 1 0 0 3 402 61 79 74 86 64 63 98 163 330 455 212 285 269 1247 1644 2140 2049 1180 86 722 936 1228 1522 1827 2228 2822 2760 3416 2899 3816 888 1290 2991 2741 2965 2242 2145 1761
477 541 490 150 130 95 0 1 4 30 271 233 102 77 83 98 37 38 174 204 276 401 435 395 712 1674 1960 2385 2472 1210 277 1532 1969 1179 1891 1919 2628 2860 3695 3123 3046 2809 3160 2914 2370 2758 1766 2292 1960
6 151 480 604 459 134 0 1 36 21 146 447 81 81 59 82 75 106 119 250 444 432 672 530 820 1168 493 2417 374 1588 1620 1353 1748 1529 1830 2758 2515 2848 3596 1518 3176 3124 3001 1418 925 2078 2295 2053 2649
2 14 163 671 805 96 19 90 149 2 122 160 313 70 99 89 204 368 182 222 492 566 940 1122 868 1737 2219 1896 2350 1342 1670 2066 2025 2132 1717 2682 2637 2372 3494 3425 3525 3643 3076 2939 3352 3634 3100 3207 2927
0 0 139 699 658 549 447 591 272 82 72 463 235 197 40 180 180 393 280 192 645 925 859 1475 1848 2530 1798 2044 1410 1735 1059 1961 1926 2041 2463 2462 2674 2547 3728 3368 3408 3891 3798 4273 3370 3864 4206 2555 2508
28 8 366 292 158 47 2 411 583 213 222 207 113 326 95 158 473 355 280 585 622 1078 1492 1631 1737 2860 2761 2343 2711 2414 2262 1650 1891 2247 2339 2165 2210 3046 3429 3649 3707 3894 3962 4420 4118 4216 4147 2534 1289
0 43 151 205 25 302 368 128 19 172 513 181 246 423 135 119 107 127 313 649 753 1220 1632 1974 2465 2600 2629 2957 459 2147 1030 2727 2753 2160 2038 1935 2290 2791 3337 3267 3959 3464 1067 1055 3738 4365 4048 3117 3261
11 30 75 72 391 287 9 135 8 0 3 278 310 313 335 127 146 159 192 511 492 1186 1276 2260 2483 2839 2531 3076 2538 3034 2408 2127 2067 2440 2145 1963 2631 3072 2720 2885 2823 2279 0 0 801 3874 4070 4353 2512
4 0 1 45 260 192 48 48 53 0 11 723 490 370 280 423 186 62 143 200 633 831 1182 1836 2582 2626 2803 3017 3096 2553 1789 1290 1235 1265 2843 2637 3399 3225 3064 2588 2880 3212 636 35 3443 3878 3763 3802 3487
0 0 0 7 36 39 113 104 292 401 97 142 537 768 364 49 223 62 35 215 100 53 989 1857 2259 2637 3049 3065 2787 3099 1616 206 684 2400 2392 2752 2481 2956 3464 2670 3015 3524 3474 3427 3393 3386 3874 4243 3911
0 0 191 160 104 92 66 17 289 30 96 174 244 815 657 455 33 259 194 386 157 91 783 1852 2139 2302 2630 2985 2428 2453 2847 2073 3200 1898 2121 1974 2216 2170 3220 3890 3499 2839 3153 3536 3435 4085 3611 3370 3353
0 0 324 12 233 19 105 79 70 131 148 217 629 558 274 379 211 545 162 588 501 206 1283 1793 2251 2332 2571 2598 2990 2318 2809 2731 2564 2815 2876 2514 2227 1865 3218 3204 3446 3257 3098 2986 3696 3380 2910 2767 3256
9 59 27 36 50 176 45 46 0 1 57 272 584 570 299 91 539 418 418 590 914 551 1605 2186 2379 2416 2327 2315 2740 2919 2869 2925 2232 3272 3024 1970 1130 1433 2628 2697 2891 3057 2280 3439 3295 2704 3315 2820 2144
0 1 6 30 31 169 195 93 71 50 1 26 284 149 566 518 431 480 684 1029 752 688 709 2358 2731 2692 2381 2243 1983 2011 2792 2659 2955 2999 3383 1505 2245 533 434 2335 2656 3175 2714 3015 3285 2987 2674 3235 2968
0 0 0 5 34 111 120 60 116 141 6 20 347 15 217 817 714 844 747 1158 1671 910 963 1574 2705 2566 2540 2213 1867 2090 2527 2414 2562 2689 3223 3461 77 0 390 821 2372 2719 3220 3180 3165 3145 2549 1713 2614
0 6 0 21 28 82 234 162 85 74 0 373 410 576 898 784 686 705 608 547 749 2145 1430 1023 337 1932 2119 2245 1711 2007 1716 2346 2406 2345 2184 3126 381 0 0 1976 2552 2977 2875 2934 3212 2945 2225 2125 2252

GFSSGP_con_sbcape_171.txt.gz
CAPE
398 542 779 978 94 47 86 61 122 32 58 0 1 48 99 158 122 84 555 808 456 820 975 1143 1600 1131 1118 1020 989 1424 1271 1053 1074 1391 1334 1187 1283 998 928 1157 550 752 1637 1574 1541 1650 1730 1747 1572
0 98 781 372 0 15 70 95 119 73 39 4 0 63 85 76 148 304 459 601 593 653 555 885 1651 1174 1033 1101 1453 1530 1212 772 939 1265 1400 1057 1119 1134 1030 873 210 1048 1472 1585 1713 1691 1511 1126 1072
0 6 459 89 32 1 50 83 98 61 9 4 0 86 140 74 153 151 334 633 587 570 552 745 1009 1105 733 1025 928 1040 886 689 528 1105 1167 940 345 826 756 882 1137 1474 1469 1698 1763 1399 1467 1551 1495
117 563 252 30 2 10 20 117 170 107 55 0 2 98 56 64 146 206 211 415 378 331 494 1109 979 889 847 1003 913 864 587 573 271 323 902 777 199 682 1266 1423 1370 1494 1387 1351 1088 1051 1248 1310 1313
250 543 109 8 0 89 247 194 70 68 17 7 5 56 33 75 108 112 245 212 148 281 651 803 1121 1114 1112 896 815 732 1056 954 326 227 503 416 621 752 1325 1425 1336 1034 962 1014 1234 1413 1391 1279 1577
86 217 73 49 64 56 108 93 79 51 4 2 0 32 69 62 54 59 186 110 107 182 346 617 976 1092 969 680 713 1069 1102 752 255 192 191 626 126 96 548 780 899 1050 1033 1323 1528 1426 1619 1615 1853
424 116 60 72 0 111 204 343 102 69 8 0 0 0 56 41 88 53 100 152 147 50 38 158 251 564 695 427 301 526 856 642 377 491 182 65 98 149 442 937 1337 1258 1440 1492 1461 1198 1360 1854 1903
148 69 58 79 119 3 115 488 159 74 45 0 0 8 7 78 100 102 213 218 247 417 208 0 0 38 153 158 498 645 821 363 151 61 48 1 54 39 629 1238 1587 1455 1538 1523 1543 1287 1242 1711 1142
279 41 25 49 38 140 158 236 134 75 72 60 1 11 55 50 72 171 163 153 70 114 138 41 12 6 21 198 464 401 342 23 0 0 0 14 112 130 549 1164 1394 1557 1677 1696 1589 1406 1429 203 0
208 0 1 167 9 31 307 150 99 121 44 32 0 33 85 101 102 178 24 0 115 25 31 41 5 13 23 80 69 66 77 16 3 0 3 42 112 237 843 1209 1426 1723 1876 1790 1756 1804 649 4 0
225 337 261 430 73 34 141 439 204 59 37 14 0 0 60 91 137 218 105 0 159 34 75 52 67 29 6 0 32 110 0 0 12 43 82 120 421 412 756 810 957 841 1347 1288 1235 1624 967 80 44
436 399 168 326 406 157 59 92 122 58 47 3 0 0 22 60 79 176 193 57 374 247 49 90 148 85 89 4 22 137 35 1 8 60 38 89 173 375 477 393 599 620 602 802 1079 679 954 127 124
280 312 342 240 249 124 237 358 203 99 98 6 0 0 0 22 80 102 138 148 224 257 429 534 51 252 107 32 142 277 199 82 18 41 42 143 180 293 400 106 255 366 281 973 6 245 484 347 640
447 360 311 208 68 38 125 166 124 108 188 34 20 0 7 22 29 33 111 145 145 429 493 88 0 121 166 33 36 196 261 267 294 247 216 182 353 210 664 329 165 0 0 249 565 750 841 1044 610
296 140 76 207 70 82 133 36 0 11 122 147 212 22 7 18 22 72 89 60 39 197 172 127 381 236 116 118 127 100 348 244 190 278 862 721 1194 1067 1706 858 0 0 98 5 495 357 229 567 363
45 217 457 121 276 113 15 32 3 12 88 296 85 42 9 21 71 85 92 65 52 36 0 460 561 853 567 132 112 0 1 162 461 329 540 861 878 1381 1536 1009 1073 4 1 887 918 697 1369 430 0
23 16 153 260 301 145 20 5 104 84 107 287 247 52 41 37 25 83 104 91 158 24 18 469 637 945 691 456 349 139 31 202 386 551 689 791 811 1144 0 90 801 1284 1340 389 10 262 1462 456 24
0 1 17 142 317 201 45 44 52 8 163 130 267 87 30 24 54 52 69 107 86 47 5 239 841 211 340 1050 683 251 331 671 499 716 881 908 838 69 0 0 245 1430 1297 1612 24 502 1371 1862 453
6 5 163 4 735 268 221 133 141 0 76 44 127 234 80 13 73 126 72 167 189 102 31 582 804 504 564 777 671 291 392 388 506 1043 1173 993 1371 869 0 160 1544 1162 1258 1698 1204 2249 2406 808 0
12 0 37 129 461 230 151 203 0 58 16 14 58 155 162 88 189 231 215 177 147 255 526 635 1068 547 329 785 694 745 520 645 884 962 905 639 886 1122 1317 1764 1956 1161 1538 590 1571 2241 505 290 0
23 9 104 325 766 32 357 25 0 14 243 140 171 58 198 128 61 80 126 159 257 315 516 522 1203 1256 1383 1012 115 352 71 969 1396 923 696 596 1042 1196 1346 1723 1368 0 0 6 0 501 516 43 0
0 1 213 39 71 246 403 145 0 74 184 223 201 160 217 94 58 40 1 104 118 543 668 924 1003 1156 1188 769 115 77 275 164 860 985 591 495 843 1107 1223 1592 611 0 0 0 0 706 1993 3 0
0 0 0 16 236 208 183 2 44 0 0 81 164 139 163 174 69 29 233 339 351 179 732 1320 1377 1517 1105 1100 240 217 1 16 18 448 1050 802 746 1533 1013 1296 539 4 2 0 0 559 2188 2329 491
0 3 0 0 25 24 82 36 167 1 201 332 256 252 253 186 105 102 108 203 214 92 214 1130 1435 1412 1257 1171 1258 568 185 28 0 64 1223 893 936 1710 1601 910 1256 1288 420 274 262 1277 2271 2422 1786
0 0 74 36 3 5 0 37 154 182 115 181 16 26 31 420 121 115 99 22 30 27 18 1077 1453 1280 1324 1586 1417 869 119 0 0 249 1030 1335 1286 1482 1416 1234 1209 1292 1530 1603 2047 2642 2007 2028 2000
0 0 118 131 1 1 2 64 124 240 4 0 0 0 20 166 109 22 23 65 32 0 59 431 1254 1275 1024 2017 1330 1073 873 617 377 971 253 1010 1099 1030 1216 1723 1493 1446 1157 1088 1524 1881 1839 1893 1970
7 0 1 26 19 49 0 5 194 66 80 7 0 61 274 504 236 72 135 132 47 24 175 124 1092 1073 906 1707 1604 1084 1130 1475 1504 1362 968 991 576 729 1225 1186 1627 1650 978 1254 1618 1418 1269 1467 802
0 0 0 2 1 31 4 2 15 220 384 482 451 8 0 100 130 149 167 41 98 134 89 60 1161 1077 1112 1207 1521 1715 1103 1652 1589 1351 1402 618 413 192 0 0 14 1099 449 442 1590 1375 1507 1312 1315
0 0 0 0 5 73 56 8 153 123 260 0 0 68 44 344 139 306 211 53 253 306 535 1514 1314 1237 1236 1270 1149 1219 1376 1705 1469 1549 1320 310 85 44 0 0 47 727 987 896 1373 1100 1334 956 970
0 0 0 0 19 13 2 30 0 2 9 0 4 345 369 427 59 550 470 379 556 404 552 1107 1265 526 169 107 641 908 966 1500 1513 1403 1491 90 0 0 0 225 4 77 1291 1564 1462 1035 1350 1044 547